IRIDIUM 26 [-]

Last updated on Wed Jun 28 2023 00:03:01 GMT+0000 (Coordinated Universal Time)

1 24903U 97043A 23178.07823593 .00000439 00000+0 14466-3 0 9998 2 24903 86.3959 53.1242 0002110 81.2815 278.8621 14.35918465353692
UTC large
Height (km)
Speed (km/s)
/
Latitude / Longitude
Inclination (degrees)
Orbital Period (minutes)
Azimuth
Elevation
Range (km)
Doppler Factor

Next 0 passes for location: London (51.5072 / 0.1276)

Sorry there are no passes over London.